Location: Black Skies Observatory
(44.7549°N, 79.7179°W)
Time: 14:50:33
(UTC-05:00)

Envisat - Pass Details

Date: 05 November 2020
Orbit: 764 x 766 km, 98.1° (Epoch: 01 December)

Event Time Altitude Azimuth Distance (km) Brightness Sun altitude
Rises 17:41:11 0° 176° (S) 3,218 6.4 -7.5°
Reaches altitude 10° 17:43:31 10° 181° (S) 2,296 5.7 -7.9°
Maximum altitude 17:48:30 57° 260° (W) 899 3.8 -8.8°
Drops below altitude 10° 17:53:31 10° 339° (NNW) 2,312 5.6 -9.7°
Sets 17:55:53 0° 343° (NNW) 3,243 6.3 -10.1°
